Volver al catálogo

BRO-16

ActivoCienciaSSO
NORAD 62654·PAYLOAD·🇫🇷 France

Lanzado Jan 14, 2025 desde Vandenberg Space Force Base

Loading…

Próximos Pases (próximas 24 horas)

TLE

ActualizadoSource: Space-Track

Época: Sep 13, 2026, 23:13 UTC

1 62654U 25009AX  26256.96775421  .00002809  00000-0  11719-3 0  9992
2 62654  97.4006 336.3644 0002182  38.0719 322.0673 15.24497304 92329

Sigue BRO-16 en tiempo real con AllMySat

Download on the App Store